Weather Roundup
Issued by NWS Chicago, IL

Home | Current Version | Previous Version | Text Only | Print | Product List | Glossary Off
Versions: 1 2 3 4 5 6 7 8 9 10 11 12 13 14 15 16 17 18 19 20 21 22 23 24 25 26 27 28 29 30 31 32 33 34 35 36 37 38 39 40 41 42 43 44 45 46 47 48 49 50

000
NZUS59 KLOT 050421
HRRLOT

CHICAGO AREA WEATHER ROUNDUP
NATIONAL WEATHER SERVICE CHICAGO/ROMEOVILLE IL
1100 PM CDT TUE AUG 04 2015

NOTE: "FAIR" INDICATES FEW OR NO CLOUDS BELOW 12,000 FEET WITH NO
SIGNIFICANT WEATHER AND/OR OBSTRUCTIONS TO VISIBILITY.

* THESE STATIONS ARE NOT UNDER NWS QUALITY CONTROL. THEY ALSO MAY NOT
  REPORT WEATHER SUCH AS PRECIPITATION OR FOG.

ILZ005-006-012>014-019>023-050500-
NORTHEAST ILLINOIS

CITY           SKY/WX    TMP DP  RH WIND       PRES   REMARKS
OHARE          PTCLDY    68  57  68 SE5       30.03S
MIDWAY         MOCLDY    74  60  61 E5        30.03R
AURORA         PTCLDY    60  56  86 CALM      30.05R
LANSING*       CLEAR     65  58  78 CALM      30.04R
JOLIET*        CLEAR     63  59  86 CALM      30.03S
WAUKEGAN       PTCLDY    61  58  90 CALM      30.03R
DUPAGE AIRPORT PTCLDY    65  57  75 CALM      30.03S
WHEELING       PTCLDY    67  58  72 CALM      30.04S
KANKAKEE*      CLEAR     66  61  82 CALM      30.04S
MORRIS*        MOCLDY    65  60  85 CALM      30.03R
LEWIS AIRPORT* CLEAR     67  54  64 CALM      30.04S
NORTHERLY IS     N/A     71  58  63 E6          N/A
$$

WIZ051-052-058>065-066-070>072-050500-
SOUTHEAST WISCONSIN

CITY           SKY/WX    TMP DP  RH WIND       PRES   REMARKS
MILWAUKEE      PTCLDY    66  55  67 SW5       30.02S
KENOSHA*       PTCLDY    61  56  83 SW5       30.03S
RACINE*        PTCLDY    65  57  75 SW6       30.04S
BURLINGTON     CLEAR     57  55  93 SW6       30.03S
WAUKESHA       CLEAR     61  52  72 CALM      30.04R
WEST BEND      CLEAR     59  54  82 CALM      30.03R
$$

INZ001>003-010>013-019-020-050500-
NORTHWEST INDIANA

CITY           SKY/WX    TMP DP  RH WIND       PRES   REMARKS
GARY*          CLEAR     66  64  92 E3        30.04S
MICHIGAN CITY* NOT AVBL
RENSSELAER*    NOT AVBL
VALPARAISO     CLEAR     64  57  78 N3        30.04S
$$

LMZ740>746-050500-
SOUTHERN LAKE MICHIGAN

STATION/POSITION TIME  SKY/WX   TEMP WIND        PRES    VSBY
                                AIR  DIR/SP/G
                 (UTC)          (F)  (DEG/KT/KT) (MB)    (MI)
HARRISON CRIB    0400            72  130/  7/  8   N/A
BURNHAM HARBOR   0400            71  110/  5/  7   N/A
CALUMET HARBOR   0300            72   50/  6/  8   N/A
BURNS HARBOR     0300            72   90/  6/  7 1017.3R
MICHIGAN CITY    0400            69  120/  5/  5   N/A
$$

ABBREVIATIONS USED IN REMARKS
   TC - TEMPERATURE IN CELSIUS
  WCI - WIND CHILL INDEX
   HX - HEAT INDEX
  VSB - VISIBILITY
$$


USA.gov is the U.S. government's official web portal to all federal, state and local government web resources and services.